Weather History for OTBD - July, 2014

Change the Weather History Date:

Sunday, July 6, 2014

  Actual Average Record
Temperature  
Mean Temperature 94 °F -  
Max Temperature 100 °F 107 °F - ()
Min Temperature 87 °F 84 °F - ()
Cooling Degree Days 28    
Growing Degree Days 44 (Base 50)    
Moisture  
Dew Point 82 °F    
Average Humidity 68    
Maximum Humidity 84    
Minimum Humidity 45    
Precipitation  
Precipitation 0.00 in 0.00 in - ()
Sea Level Pressure  
Sea Level Pressure 29.55 in    
Wind  
Wind Speed 6 mph ()    
Max Wind Speed 13 mph    
Max Gust Speed -    
Visibility 5.1 miles    
Events      
T = Trace of Precipitation, MM = Missing Value Source: Averaged Metar Reports

Daily Weather History Graph

Daily Weather History Graph

Search for Another Location

Airport or City:

Trip Planner

Search our weather history database for the weather conditions in past years. The results will help you decide how hot, cold, wet, or windy it might be!

Date:

Astronomy

Jul. 06, 2014 Rise Set
Actual Time 4:48 AM AST 6:28 PM AST
Civil Twilight 4:23 AM AST 6:53 PM AST
Nautical Twilight 3:52 AM AST 7:24 PM AST
Astronomical Twilight 3:19 AM AST 7:56 PM AST
Moon 12:26 PM AST (7/6) No Moon Set
Length of Visible Light 14h 30m
Length of Day
13h 39m
First Quarter, 59% of the Moon is Illuminated
Jul 6
First Quarter
Jul 12
Full
Jul 19
Last Quarter
Jul 27
New
Aug 4
First Quarter

Hourly Weather History & Observations

Time (AST) Temp. Heat Index Dew Point Humidity Pressure Visibility Wind Dir Wind Speed Gust Speed Precip Events Conditions
12:00 AM 90 °F - 83 °F 75% 29.54 in 5 mi North 3.5 mph - -   Haze
12:00 AM 89.6 °F 111.1 °F 82.4 °F 79% 29.53 in 5.0 mi North 3.5 mph - N/A   Unknown
12:30 AM 89.6 °F 111.1 °F 82.4 °F 79% 29.53 in 5.0 mi North 3.5 mph - N/A   Unknown
1:00 AM 89.6 °F 111.1 °F 82.4 °F 79% 29.53 in 5.0 mi North 3.5 mph - N/A   Unknown
1:30 AM 89.6 °F 111.1 °F 82.4 °F 79% 29.50 in 5.6 mi NNE 5.8 mph - N/A   Unknown
2:00 AM 89.6 °F 111.1 °F 82.4 °F 79% 29.53 in 5.6 mi East 3.5 mph - N/A   Unknown
3:00 AM 89 °F - 82 °F 74% 29.54 in 6 mi 2.3 mph - -   Haze
3:00 AM 87.8 °F 108.2 °F 82.4 °F 84% 29.53 in 5.6 mi Variable 2.3 mph - N/A   Unknown
4:00 AM 87.8 °F 104.9 °F 80.6 °F 79% 29.53 in 5.6 mi NE 3.5 mph - N/A   Unknown
4:30 AM 87.8 °F 104.9 °F 80.6 °F 79% 29.53 in 5.6 mi NE 5.8 mph - N/A   Unknown
5:00 AM 87.8 °F 108.2 °F 82.4 °F 84% 29.53 in 5.6 mi NNE 3.5 mph - N/A   Unknown
5:30 AM 87.8 °F 108.2 °F 82.4 °F 84% 29.53 in - NNE 4.6 mph - N/A   Clear
6:00 AM 89 °F - 83 °F 77% 29.57 in 6 mi North 4.6 mph - -   Clear
6:00 AM 89.6 °F 111.1 °F 82.4 °F 79% 29.56 in - North 4.6 mph - N/A   Clear
6:30 AM 91.4 °F 117.8 °F 84.2 °F 79% 29.56 in 5.6 mi North 8.1 mph - N/A   Unknown
7:00 AM 93.2 °F 117.1 °F 82.4 °F 71% 29.56 in 5.6 mi North 6.9 mph - N/A   Unknown
7:30 AM 93.2 °F 117.1 °F 82.4 °F 71% 29.56 in 5.6 mi North 6.9 mph - N/A   Unknown
8:00 AM 95.0 °F 112.2 °F 78.8 °F 59% 29.56 in - North 5.8 mph - N/A   Clear
8:30 AM 96.8 °F 114.8 °F 78.8 °F 56% 29.59 in - NNE 6.9 mph - N/A   Clear
9:00 AM 96 °F - 78 °F 48% 29.60 in 6 mi North 5.8 mph - -   Clear
9:00 AM 96.8 °F 114.8 °F 78.8 °F 56% 29.59 in - North 5.8 mph - N/A   Clear
9:30 AM 98.6 °F 117.2 °F 78.8 °F 53% 29.59 in - North 5.8 mph - N/A   Clear
10:00 AM 100.4 °F 116.5 °F 77.0 °F 47% 29.59 in - NNE 8.1 mph - N/A   Clear
10:30 AM 100.4 °F 116.5 °F 77.0 °F 47% 29.59 in - NE 10.4 mph - N/A   Clear
11:00 AM 98.6 °F 117.2 °F 78.8 °F 53% 29.59 in - North 11.5 mph - N/A   Clear
11:30 AM 98.6 °F 120.3 °F 80.6 °F 56% 29.56 in 5.6 mi NE 11.5 mph - N/A   Unknown
12:00 PM 99 °F - 79 °F 45% 29.59 in 6 mi NE 12.7 mph - -   Haze
12:00 PM 98.6 °F 117.2 °F 78.8 °F 53% 29.56 in 5.6 mi NE 12.7 mph - N/A   Unknown
12:30 PM 98.6 °F 124.6 °F 82.4 °F 60% 29.56 in 5.0 mi NNE 11.5 mph - N/A   Unknown
1:00 PM 98.6 °F 124.6 °F 82.4 °F 60% 29.56 in 4.3 mi NNE 11.5 mph - N/A   Unknown
1:30 PM 98.6 °F 124.6 °F 82.4 °F 60% 29.56 in 4.3 mi NE 12.7 mph - N/A   Unknown
2:00 PM 98.6 °F 124.6 °F 82.4 °F 60% 29.56 in 4.3 mi NNE 11.5 mph - N/A   Unknown
2:30 PM 98.6 °F 124.6 °F 82.4 °F 60% 29.56 in 4.3 mi NE 11.5 mph - N/A   Unknown
3:00 PM 98 °F - 82 °F 52% 29.56 in 5 mi NE 11.5 mph - -   Haze
3:00 PM 98.6 °F 124.6 °F 82.4 °F 60% 29.53 in 5.0 mi NE 11.5 mph - N/A   Unknown
4:00 PM 96.8 °F 121.7 °F 82.4 °F 63% 29.53 in 5.0 mi NNE 12.7 mph - N/A   Unknown
4:30 PM 96.8 °F 121.7 °F 82.4 °F 63% 29.53 in 5.0 mi NNE 11.5 mph - N/A   Unknown
5:00 PM 95.0 °F 119.6 °F 82.4 °F 67% 29.53 in 5.0 mi NNE 11.5 mph - N/A   Unknown
5:30 PM 95.0 °F 119.6 °F 82.4 °F 67% 29.53 in 5.0 mi NNE 11.5 mph - N/A   Unknown
6:00 PM 94 °F - 83 °F 65% 29.55 in 5 mi NNE 10.4 mph - -   Haze
6:00 PM 95.0 °F 123.7 °F 84.2 °F 71% 29.53 in 5.0 mi NNE 10.4 mph - N/A   Unknown
7:00 PM 93.2 °F 120.9 °F 84.2 °F 75% 29.56 in 4.3 mi NNE 8.1 mph - N/A   Unknown
8:00 PM 91.4 °F 117.8 °F 84.2 °F 79% 29.56 in 4.3 mi NNE 6.9 mph - N/A   Unknown
9:00 PM 92 °F - 85 °F 75% 29.57 in 4 mi North 9.2 mph - -   Haze
9:00 PM 91.4 °F 122.4 °F 86.0 °F 84% 29.56 in 4.3 mi North 9.2 mph - N/A   Unknown
10:00 PM 91.4 °F 122.4 °F 86.0 °F 84% 29.56 in 4.3 mi North 10.4 mph - N/A   Unknown
11:00 PM 91.4 °F 117.8 °F 84.2 °F 79% 29.56 in 4.3 mi North 11.5 mph - N/A   Unknown